Regional Weather Roundup
Issued by NWS

Home | Current Version | Previous Version | Graphics & Text | Print | Product List | Glossary On
Versions: 1 2 3 4 5 6 7 8 9 10 11 12 13 14 15 16 17 18 19 20 21 22 23 24 25 26 27 28 29 30 31 32 33 34 35 36 37 38 39 40 41 42 43 44 45 46 47 48 49 50
000
ASUS43 KLMK 280810
RWRKY
KENTUCKY REGIONAL WEATHER ROUNDUP
NATIONAL WEATHER SERVICE LOUISVILLE KY
300 AM EST WED JAN 28 2015

NOTE "FAIR" INDICATES FEW OR NO CLOUDS BELOW 12,000 FEET
WITH NO SIGNIFICANT WEATHER AND/OR OBSTRUCTIONS TO VISIBILITY.

KYZ001>023-026-027-061>063-070>075-280900-
WESTERN AND SOUTH CENTRAL KENTUCKY

CITY           SKY/WX    TMP DP  RH WIND       PRES   REMARKS
PADUCAH        CLEAR     26  23  88 E5        30.25R WCI  20
HENDERSON      CLOUDY    32  25  74 NE8       30.28R WCI  25
OWENSBORO      CLOUDY    32  27  82 NE3       30.29R
HOPKINSVILLE   CLOUDY    31  29  90 NE7       30.25R WCI  24
BOWLING GREEN  CLOUDY    33  26  75 NE6       30.27R WCI  28
GLASGOW        MOCLDY    27  18  70 NE3       30.27R
$$

KYZ024-025-028>034-038-045-046-053-280900-
NORTH CENTRAL KENTUCKY

CITY           SKY/WX    TMP DP  RH WIND       PRES   REMARKS
LOUISVILLE/SDF CLEAR     23  13  65 CALM      30.30R
LOUISVILLE/LOU CLEAR     21  12  68 CALM      30.30R
FORT KNOX      CLEAR     21  14  74 NE5       30.28R WCI  14
$$

KYZ035>037-039>044-047>052-055>060-089>105-280900-
NORTHEAST KENTUCKY

CITY           SKY/WX    TMP DP  RH WIND       PRES   REMARKS
LEXINGTON      CLEAR     17  11  77 NE5       30.27R WCI  10
COVINGTON      CLEAR     15  11  83 CALM      30.27R
FRANKFORT      CLEAR     17  10  74 CALM      30.27R
$$

KYZ054-064>069-076>088-106>120-280900-
SOUTHEAST KENTUCKY

CITY           SKY/WX    TMP DP  RH WIND       PRES   REMARKS
JACKSON        CLEAR     17  11  77 CALM      30.22R
LONDON         CLEAR     21  12  68 N3        30.23R
SOMERSET       CLEAR     23  14  68 CALM      30.27R
MIDDLESBORO    CLEAR     21  17  86 CALM      30.22R
MONTICELLO     SUNNY     21  16  81 CALM      30.28R
$$



USA.gov is the U.S. government's official web portal to all federal, state and local government web resources and services.